Theta_e
327 329 330 331 330 329 331 332 332 333 334 334 333 333 334 335 331 327 319 319 319 318 321 322 322 323 323 322 322 322 321 321 322 319 319 320 321 322 323 325 325 326 326
319 318 319 322 325 324 325 327 328 329 331 333 333 335 335 326 318 315 312 312 314 316 316 317 317 318 318 319 319 319 318 319 320 316 313 311 314 319 321 321 322 323 324
314 312 311 313 316 316 316 316 316 318 319 325 330 330 326 319 313 310 309 310 312 312 312 313 314 315 316 316 316 316 315 312 316 317 312 308 306 311 316 318 319 320 320
310 307 306 307 308 309 311 311 311 311 310 314 314 312 311 304 304 305 308 308 308 307 307 308 309 309 310 310 311 312 313 313 310 313 314 313 312 307 305 314 315 316 315
305 304 304 303 304 305 305 305 304 303 304 305 306 305 304 302 302 303 304 304 304 303 302 303 304 304 306 306 307 307 308 309 309 309 309 309 310 311 309 304 308 312 311
300 301 302 301 299 299 300 300 299 298 300 300 301 299 298 299 298 298 299 299 299 298 297 299 299 299 300 300 301 302 303 303 304 304 305 304 303 304 303 303 304 305 309
297 296 295 294 295 295 295 296 296 294 295 295 295 295 295 295 294 294 294 294 293 293 293 294 295 295 295 296 297 298 298 298 298 299 299 301 301 303 303 302 300 301 305
297 296 295 295 295 294 293 293 293 292 293 292 291 292 292 292 291 291 291 291 290 291 292 292 293 293 293 293 294 295 295 295 295 295 296 297 298 299 299 298 298 295 299
297 296 296 295 294 293 292 293 292 291 290 290 290 289 289 289 289 289 289 289 289 289 290 291 291 291 291 291 291 291 292 292 292 293 293 293 294 296 296 297 298 296 291
296 295 294 293 293 292 291 291 291 289 289 289 288 288 287 288 288 287 287 287 288 288 288 288 288 288 289 289 289 289 290 289 290 290 290 290 292 293 294 295 295 295 293
293 293 293 292 291 290 289 289 289 288 288 288 287 287 286 287 287 286 286 286 286 286 286 286 286 286 286 287 287 287 288 287 287 288 288 288 289 289 290 292 292 292 293
292 291 290 289 288 288 288 287 287 287 286 286 286 285 285 285 284 284 284 284 284 285 284 285 285 285 285 285 286 285 286 285 285 286 286 286 287 288 289 288 288 289 290
290 289 289 288 287 286 286 286 286 285 285 284 284 283 283 283 282 283 283 283 283 283 284 284 283 283 283 284 285 285 285 285 285 285 285 285 285 284 285 285 285 285 286
289 288 287 286 286 285 285 284 284 284 284 283 283 282 282 282 282 282 282 282 282 282 282 282 282 282 283 284 284 284 284 284 284 285 284 284 284 283 284 284 284 284 282
287 287 286 285 284 284 284 284 283 283 283 282 281 280 281 281 281 281 281 281 281 281 281 281 281 281 282 283 283 283 283 282 282 283 283 283 283 283 283 283 282 283 282
287 286 285 284 283 283 283 282 282 281 281 280 279 279 279 279 279 279 279 279 279 279 280 280 280 280 280 282 283 283 282 281 281 280 281 282 282 282 282 282 283 283 281
287 285 284 283 283 282 282 281 280 281 280 279 278 278 278 278 278 278 278 277 278 278 278 279 279 279 280 281 282 282 281 280 280 279 280 280 280 281 280 281 282 282 282
287 285 284 282 281 281 281 281 280 279 279 278 277 277 276 277 277 276 276 277 277 277 277 278 278 278 279 280 280 281 280 279 279 279 279 279 278 279 279 279 279 280 280
287 285 284 282 281 280 281 279 278 278 277 275 275 275 275 275 275 275 275 276 276 276 276 277 277 277 278 279 279 279 278 277 277 278 278 277 277 278 279 277 277 277 278
285 283 282 280 279 279 280 278 276 276 274 274 274 274 274 274 274 274 274 275 275 275 275 275 276 277 276 277 278 278 277 276 276 276 276 277 277 278 278 276 275 274 275
283 282 280 279 278 278 278 276 275 274 273 273 273 273 273 273 274 273 274 274 274 274 274 274 275 275 275 275 277 277 276 276 275 275 275 276 277 277 277 277 274 274 275
280 279 278 276 276 276 276 275 273 272 272 271 271 271 271 272 273 272 273 272 272 273 273 273 274 275 274 275 275 276 277 277 275 274 274 275 276 275 275 274 274 275 274
278 278 277 275 274 274 275 273 272 271 270 269 269 270 270 271 271 271 271 272 272 272 272 272 272 272 273 273 274 275 276 276 275 274 274 274 273 273 271 272 272 271 270
276 275 274 273 271 271 271 271 270 269 267 268 269 270 269 269 270 271 271 271 271 271 271 271 271 271 271 272 273 274 275 275 274 273 272 271 270 270 270 268 269 268 268
274 274 273 272 271 270 269 268 267 267 268 268 268 269 269 268 269 269 269 269 271 271 270 270 271 270 269 271 274 273 273 273 273 270 268 266 266 265 265 265 265 266 267
272 272 271 271 269 268 267 265 264 264 265 268 268 268 268 268 268 268 268 269 269 271 271 272 271 271 272 273 273 274 274 273 271 267 264 264 263 263 263 263 263 264 264
Wind_Speed
3 4 5 6 4 3 5 5 5 5 5 4 4 4 3 3 5 6 8 7 7 6 6 5 5 6 5 6 6 6 8 7 6 8 8 9 10 8 9 7 7 9 8
7 7 6 4 5 6 5 5 5 4 1 1 1 1 3 6 6 6 7 8 8 9 7 8 6 7 5 6 7 7 6 7 6 6 8 6 10 1 6 9 10 11 8
9 8 8 7 7 9 8 9 9 8 8 5 3 3 5 5 5 7 6 8 11 11 10 10 8 7 6 5 7 7 8 6 8 8 4 6 5 11 8 10 10 10 8
11 10 10 10 10 10 10 12 12 12 12 11 10 11 8 7 5 4 7 9 13 13 13 12 11 10 7 9 8 7 6 6 7 6 3 7 8 5 6 2 5 9 9
12 13 13 12 12 12 11 12 14 15 14 14 12 9 10 4 5 5 8 9 9 12 14 13 13 12 9 10 9 8 8 6 6 6 8 10 8 9 7 10 6 6 7
14 15 14 14 14 12 12 11 13 15 14 15 14 13 12 6 6 9 8 7 7 8 12 11 10 10 9 10 10 9 10 8 7 6 7 7 6 9 9 12 15 15 11
15 15 15 14 14 15 13 13 13 15 15 15 15 12 14 11 12 9 7 7 5 8 10 11 11 8 9 9 10 9 9 9 8 8 7 6 7 7 8 9 11 13 12
15 16 15 13 14 13 13 12 11 15 13 12 14 13 13 7 7 10 7 7 7 7 9 9 9 11 11 10 9 7 8 9 9 11 9 7 7 8 8 9 10 14 11
14 14 12 10 11 11 11 10 10 12 10 14 9 11 11 9 7 10 8 7 7 7 10 12 10 10 10 11 11 8 9 9 9 9 10 8 8 8 8 9 9 10 13
11 10 9 9 9 10 9 10 9 10 10 11 9 8 8 6 7 9 11 9 8 10 10 10 10 10 11 12 12 10 11 12 9 8 12 11 8 9 8 8 9 9 10
10 10 8 7 9 8 7 10 11 10 10 9 8 9 8 8 8 8 9 10 9 9 9 10 11 12 12 12 12 13 14 14 13 13 14 15 15 10 10 9 9 10 10
10 9 8 8 9 10 10 10 9 9 9 9 9 9 8 8 8 8 8 8 8 9 10 11 11 11 12 12 13 13 12 13 14 13 13 13 11 13 12 10 13 12 12
11 10 10 9 9 9 8 8 8 9 8 8 8 8 8 7 8 8 9 9 9 10 10 10 11 11 11 10 12 12 12 12 11 12 12 13 13 13 11 12 11 11 10
12 12 9 9 8 7 7 7 7 7 6 7 7 7 7 7 7 8 8 8 9 9 10 9 9 9 8 10 12 12 12 11 11 12 12 13 13 15 15 13 14 11 13
14 12 11 9 8 7 7 6 6 6 6 6 7 7 7 8 8 8 8 7 7 6 6 7 8 9 7 9 13 13 13 12 12 12 12 12 13 16 19 13 14 15 12
14 13 11 10 8 7 6 6 6 6 6 6 7 7 7 6 6 5 6 6 6 7 7 8 9 9 6 16 18 16 12 12 12 13 14 15 15 19 25 25 26 23 18
16 14 12 10 8 7 6 6 5 5 6 6 7 6 5 5 6 6 6 6 7 8 7 7 8 9 9 18 19 21 11 13 14 16 15 15 12 18 18 23 28 25 27
15 12 10 9 8 7 7 7 5 5 7 7 5 4 5 5 5 5 5 6 6 7 7 8 9 9 8 17 20 23 14 14 16 17 18 18 19 18 21 23 23 21 20
13 11 10 9 8 7 7 7 6 7 6 4 3 4 4 4 4 4 5 6 7 7 8 8 8 9 10 17 21 21 15 16 17 16 18 19 19 25 34 24 25 26 22
12 12 11 9 8 7 6 7 7 5 3 1 1 3 4 3 4 6 6 6 6 7 7 8 8 8 11 17 22 21 12 15 13 16 17 20 22 33 35 25 22 23 23
13 12 10 8 6 5 6 7 5 4 1 1 2 3 3 3 4 5 5 6 6 6 6 7 7 9 12 14 21 22 13 12 14 13 13 13 30 35 36 35 19 21 28
13 11 10 8 6 5 6 6 5 3 1 1 0 1 3 3 4 4 4 4 5 5 6 9 9 8 10 15 16 21 22 24 15 14 13 16 35 35 34 27 32 34 29
11 9 9 9 5 4 4 5 4 2 2 2 0 1 3 3 4 4 3 3 4 5 7 7 8 9 10 10 18 20 24 23 15 13 22 32 32 31 22 28 32 25 14
9 8 9 8 6 4 3 4 4 2 2 2 0 1 2 3 2 3 3 4 5 6 7 8 9 10 10 10 10 11 12 15 15 18 13 19 22 23 22 16 16 13 13
8 7 7 6 6 6 5 4 3 1 2 2 1 2 2 3 3 3 3 4 4 5 8 8 9 10 10 11 20 19 13 13 15 17 10 10 11 12 12 13 14 14 14
8 6 6 6 7 7 6 4 2 2 2 2 1 1 2 3 3 4 5 4 7 10 12 12 12 9 17 23 25 26 24 26 25 10 10 11 11 12 12 13 14 13 16
Wind_Direction
169 198 205 202 193 186 206 211 215 209 207 215 226 231 252 82 69 65 36 29 22 14 11 4 352 348 344 340 335 327 321 316 324 299 301 305 290 295 296 298 290 288 283
134 90 89 115 130 111 100 103 90 67 84 233 216 319 106 82 69 48 44 33 33 28 23 18 9 5 349 353 353 351 333 316 340 320 307 314 311 291 324 299 297 291 289
133 109 85 75 79 78 80 81 73 63 50 42 81 98 92 64 46 23 22 34 37 32 28 26 17 12 9 5 359 358 351 330 320 331 307 313 308 322 300 313 303 296 295
115 108 98 79 69 68 75 78 74 67 54 50 60 65 70 87 62 30 30 42 33 28 25 20 18 16 13 9 2 359 348 334 325 332 336 309 304 309 303 270 301 300 294
111 107 97 91 79 67 63 70 73 66 63 64 71 78 79 53 94 89 57 43 38 34 27 23 19 16 11 3 4 1 359 348 331 330 324 318 312 291 304 303 294 263 256
105 99 95 92 80 70 57 53 63 60 55 62 62 64 62 35 60 53 56 36 31 23 23 21 23 19 14 8 358 0 8 6 352 340 327 318 313 313 311 308 308 301 290
114 111 100 88 80 66 70 58 48 62 56 57 54 54 59 46 45 56 52 42 36 27 13 9 9 9 4 4 353 359 2 5 355 349 333 320 313 308 299 293 296 297 304
114 111 103 98 85 80 67 70 53 61 52 55 60 54 48 32 25 38 35 45 35 16 4 6 7 10 3 355 352 359 1 359 350 344 342 331 321 322 311 306 306 304 291
119 114 106 99 98 89 87 84 80 64 53 60 55 53 56 46 28 38 36 38 27 6 4 10 2 9 8 1 358 4 4 357 351 343 343 333 324 321 314 313 307 297 304
123 115 107 105 100 98 105 99 93 93 88 80 69 71 73 67 51 37 31 27 18 14 8 1 2 8 9 9 6 3 3 358 358 355 347 342 336 327 324 315 304 293 290
134 125 118 106 102 107 106 93 84 82 78 75 78 73 62 52 50 44 31 19 12 7 4 4 7 8 7 10 9 3 359 356 351 351 348 338 339 335 323 322 316 309 300
132 129 125 114 106 96 82 82 84 81 69 61 60 59 51 47 42 36 27 17 12 9 7 7 7 6 8 8 6 359 353 351 347 345 340 338 335 326 328 329 320 309 306
148 140 136 118 100 92 89 86 78 74 69 68 61 57 49 44 40 33 22 15 13 10 7 9 6 2 2 6 3 356 348 342 341 337 336 331 329 331 321 323 318 313 307
154 137 123 115 109 100 101 94 83 76 74 71 68 60 48 41 32 25 20 16 11 3 4 5 1 359 358 6 357 350 344 341 339 335 331 327 321 319 320 320 315 313 309
154 140 138 131 123 123 114 105 93 79 72 69 64 51 39 36 23 17 13 4 6 4 353 357 1 4 10 4 356 348 340 342 333 331 325 318 317 311 326 316 322 318 313
153 150 144 141 144 144 127 116 96 80 78 68 54 39 34 30 21 9 6 2 358 1 357 5 4 1 355 356 354 352 336 337 332 328 327 327 329 332 324 325 321 316 313
161 155 154 156 147 133 141 132 125 118 95 77 52 35 24 23 15 6 2 358 356 352 355 0 358 353 357 355 352 348 337 334 334 332 333 331 331 329 322 320 316 310 301
157 155 153 144 137 144 149 135 128 115 79 61 45 29 21 15 5 353 354 357 350 345 348 357 355 350 344 350 349 346 340 337 337 334 333 329 328 322 326 320 313 312 305
151 150 150 147 151 151 150 144 109 77 70 57 30 16 7 354 344 349 353 359 349 344 351 345 343 342 338 349 349 351 345 338 336 329 328 326 321 327 324 319 317 311 307
142 146 146 144 150 149 145 107 88 92 106 54 3 350 352 337 346 355 356 348 339 335 327 329 340 333 336 351 352 351 339 326 326 325 323 324 326 323 325 321 315 312 313
145 143 149 152 134 126 120 109 129 154 162 345 2 356 342 323 358 354 349 339 331 315 316 323 333 346 352 348 345 340 330 329 326 322 324 325 323 326 324 322 320 312 317
150 152 145 138 128 131 145 153 168 129 52 21 193 330 345 349 357 342 311 309 318 318 337 344 344 347 343 336 332 332 331 332 323 324 321 320 326 325 324 324 321 320 322
151 151 150 145 140 137 174 165 130 135 174 188 97 7 354 336 328 324 321 309 339 347 344 344 340 334 333 325 326 321 329 325 324 321 323 323 322 323 322 321 323 326 316
154 155 153 156 153 151 122 127 153 169 174 197 329 8 292 316 314 317 343 340 343 342 342 337 331 323 320 322 320 325 322 318 325 330 321 317 320 319 320 321 325 320 317
155 162 166 162 160 160 157 162 168 178 198 221 259 304 290 331 336 337 316 315 313 325 331 325 317 314 315 315 320 323 316 327 329 331 319 322 325 325 326 324 323 321 319
154 160 165 157 163 178 174 166 173 191 228 205 223 312 305 337 330 314 310 302 301 319 313 315 320 317 310 316 322 319 328 330 333 330 325 322 321 319 321 320 319 320 318